Year,Month,Day,Hour,Minute,Value (Times are PST for temperature in C)
2018,07,23,00,00,17.40
2018,07,23,00,01,17.40
2018,07,23,00,02,17.30
2018,07,23,00,03,17.30
2018,07,23,00,04,17.30
2018,07,23,00,05,17.30
2018,07,23,00,06,17.30
2018,07,23,00,07,17.30
2018,07,23,00,08,17.30
2018,07,23,00,09,17.30
2018,07,23,00,10,17.30
2018,07,23,00,11,17.30
2018,07,23,00,12,17.30
2018,07,23,00,13,17.30
2018,07,23,00,14,17.30
2018,07,23,00,15,17.30
2018,07,23,00,16,17.20
2018,07,23,00,17,17.20
2018,07,23,00,18,17.30
2018,07,23,00,19,17.30
2018,07,23,00,20,17.30
2018,07,23,00,21,17.30
2018,07,23,00,22,17.30
2018,07,23,00,23,17.30
2018,07,23,00,24,17.30
2018,07,23,00,25,17.40
2018,07,23,00,26,17.40
2018,07,23,00,27,17.40
2018,07,23,00,28,17.40
2018,07,23,00,29,17.40
2018,07,23,00,30,17.40
2018,07,23,00,31,17.40
2018,07,23,00,32,17.40
2018,07,23,00,33,17.40
2018,07,23,00,34,17.40
2018,07,23,00,35,17.50
2018,07,23,00,36,17.50
2018,07,23,00,37,17.50
2018,07,23,00,38,17.50
2018,07,23,00,39,17.50
2018,07,23,00,40,17.50
2018,07,23,00,41,17.50
2018,07,23,00,42,17.50
2018,07,23,00,43,17.50
2018,07,23,00,44,17.50
2018,07,23,00,45,17.50
2018,07,23,00,46,17.40
2018,07,23,00,47,17.40
2018,07,23,00,48,17.40
2018,07,23,00,49,17.40
2018,07,23,00,50,17.40
2018,07,23,00,51,17.40
2018,07,23,00,52,17.40
2018,07,23,00,53,17.50
2018,07,23,00,54,17.50
2018,07,23,00,55,17.60
2018,07,23,00,56,17.60
2018,07,23,00,57,17.60
2018,07,23,00,58,17.60
2018,07,23,00,59,17.60
2018,07,23,01,00,17.60
2018,07,23,01,01,17.60
2018,07,23,01,02,17.60
2018,07,23,01,03,17.60
2018,07,23,01,04,17.60
2018,07,23,01,05,17.60
2018,07,23,01,06,17.60
2018,07,23,01,07,17.60
2018,07,23,01,08,17.60
2018,07,23,01,09,17.60
2018,07,23,01,10,17.50
2018,07,23,01,11,17.50
2018,07,23,01,12,17.50
2018,07,23,01,13,17.40
2018,07,23,01,14,17.40
2018,07,23,01,15,17.40
2018,07,23,01,16,17.40
2018,07,23,01,17,17.40
2018,07,23,01,18,17.30
2018,07,23,01,19,17.30
2018,07,23,01,20,17.30
2018,07,23,01,21,17.30
2018,07,23,01,22,17.20
2018,07,23,01,23,17.20
2018,07,23,01,24,17.20
2018,07,23,01,25,17.10
2018,07,23,01,26,17.10
2018,07,23,01,27,17.10
2018,07,23,01,28,17.10
2018,07,23,01,29,17.10
2018,07,23,01,30,17.10
2018,07,23,01,31,17.00
2018,07,23,01,32,17.00
2018,07,23,01,33,17.00
2018,07,23,01,34,17.00
2018,07,23,01,35,17.00
2018,07,23,01,36,17.00
2018,07,23,01,37,16.90
2018,07,23,01,38,16.90
2018,07,23,01,39,16.90
2018,07,23,01,40,16.90
2018,07,23,01,41,16.90
2018,07,23,01,42,16.90
2018,07,23,01,43,16.80
2018,07,23,01,44,16.80
2018,07,23,01,45,16.80
2018,07,23,01,46,16.80
2018,07,23,01,47,16.80
2018,07,23,01,48,16.80
2018,07,23,01,49,16.70
2018,07,23,01,50,16.70
2018,07,23,01,51,16.70
2018,07,23,01,52,16.70
2018,07,23,01,53,16.70
2018,07,23,01,54,16.70
2018,07,23,01,55,16.70
2018,07,23,01,56,16.70
2018,07,23,01,57,16.70
2018,07,23,01,58,16.60
2018,07,23,01,59,16.60
2018,07,23,02,00,16.60
2018,07,23,02,01,16.60
2018,07,23,02,02,16.60
2018,07,23,02,03,16.60
2018,07,23,02,04,16.60
2018,07,23,02,05,16.60
2018,07,23,02,06,16.60
2018,07,23,02,07,16.60
2018,07,23,02,08,16.60
2018,07,23,02,09,16.60
2018,07,23,02,10,16.60
2018,07,23,02,11,16.60
2018,07,23,02,12,16.60
2018,07,23,02,13,16.60
2018,07,23,02,14,16.50
2018,07,23,02,15,16.50
2018,07,23,02,16,16.50
2018,07,23,02,17,16.50
2018,07,23,02,18,16.50
2018,07,23,02,19,16.40
2018,07,23,02,20,16.40
2018,07,23,02,21,16.40
2018,07,23,02,22,16.40
2018,07,23,02,23,16.40
2018,07,23,02,24,16.40
2018,07,23,02,25,16.40
2018,07,23,02,26,16.40
2018,07,23,02,27,16.30
2018,07,23,02,28,16.30
2018,07,23,02,29,16.30
2018,07,23,02,30,16.30
2018,07,23,02,31,16.30
2018,07,23,02,32,16.30
2018,07,23,02,33,16.30
2018,07,23,02,34,16.30
2018,07,23,02,35,16.30
2018,07,23,02,36,16.20
2018,07,23,02,37,16.20
2018,07,23,02,38,16.20
2018,07,23,02,39,16.20
2018,07,23,02,40,16.20
2018,07,23,02,41,16.20
2018,07,23,02,42,16.20
2018,07,23,02,43,16.20
2018,07,23,02,44,16.20
2018,07,23,02,45,16.20
2018,07,23,02,46,16.10
2018,07,23,02,47,16.10
2018,07,23,02,48,16.10
2018,07,23,02,49,16.10
2018,07,23,02,50,16.10
2018,07,23,02,51,16.10
2018,07,23,02,52,16.10
2018,07,23,02,53,16.10
2018,07,23,02,54,16.10
2018,07,23,02,55,16.10
2018,07,23,02,56,16.10
2018,07,23,02,57,16.10
2018,07,23,02,58,16.10
2018,07,23,02,59,16.10
2018,07,23,03,00,16.10
2018,07,23,03,01,16.10
2018,07,23,03,02,16.10
2018,07,23,03,03,16.10
2018,07,23,03,04,16.10
2018,07,23,03,05,16.10
2018,07,23,03,06,16.10
2018,07,23,03,07,16.10
2018,07,23,03,08,16.10
2018,07,23,03,09,16.10
2018,07,23,03,10,16.10
2018,07,23,03,11,16.10
2018,07,23,03,12,16.00
2018,07,23,03,13,16.00
2018,07,23,03,14,16.00
2018,07,23,03,15,16.00
2018,07,23,03,16,16.00
2018,07,23,03,17,16.00
2018,07,23,03,18,15.90
2018,07,23,03,19,15.90
2018,07,23,03,20,15.90
2018,07,23,03,21,15.90
2018,07,23,03,22,15.90
2018,07,23,03,23,15.90
2018,07,23,03,24,15.90
2018,07,23,03,25,15.80
2018,07,23,03,26,15.80
2018,07,23,03,27,15.80
2018,07,23,03,28,15.80
2018,07,23,03,29,15.80
2018,07,23,03,30,15.80
2018,07,23,03,31,15.80
2018,07,23,03,32,15.80
2018,07,23,03,33,15.80
2018,07,23,03,34,15.80
2018,07,23,03,35,15.70
2018,07,23,03,36,15.70
2018,07,23,03,37,15.70
2018,07,23,03,38,15.70
2018,07,23,03,39,15.70
2018,07,23,03,40,15.70
2018,07,23,03,41,15.70
2018,07,23,03,42,15.70
2018,07,23,03,43,15.70
2018,07,23,03,44,15.70
2018,07,23,03,45,15.70
2018,07,23,03,46,15.70
2018,07,23,03,47,15.70
2018,07,23,03,48,15.70
2018,07,23,03,49,15.70
2018,07,23,03,50,15.70
2018,07,23,03,51,15.60
2018,07,23,03,52,15.60
2018,07,23,03,53,15.60
2018,07,23,03,54,15.60
2018,07,23,03,55,15.60
2018,07,23,03,56,15.60
2018,07,23,03,57,15.60
2018,07,23,03,58,15.60
2018,07,23,03,59,15.50
2018,07,23,04,00,15.50
2018,07,23,04,01,15.50
2018,07,23,04,02,15.50
2018,07,23,04,03,15.50
2018,07,23,04,04,15.50
2018,07,23,04,05,15.40
2018,07,23,04,06,15.40
2018,07,23,04,07,15.40
2018,07,23,04,08,15.40
2018,07,23,04,09,15.40
2018,07,23,04,10,15.40
2018,07,23,04,11,15.40
2018,07,23,04,12,15.40
2018,07,23,04,13,15.40
2018,07,23,04,14,15.40
2018,07,23,04,15,15.40
2018,07,23,04,16,15.40
2018,07,23,04,17,15.40
2018,07,23,04,18,15.40
2018,07,23,04,19,15.40
2018,07,23,04,20,15.40
2018,07,23,04,21,15.40
2018,07,23,04,22,15.40
2018,07,23,04,23,15.40
2018,07,23,04,24,15.30
2018,07,23,04,25,15.30
2018,07,23,04,26,15.30
2018,07,23,04,27,15.30
2018,07,23,04,28,15.30
2018,07,23,04,29,15.30
2018,07,23,04,30,15.30
2018,07,23,04,31,15.30
2018,07,23,04,32,15.30
2018,07,23,04,33,15.30
2018,07,23,04,34,15.30
2018,07,23,04,35,15.30
2018,07,23,04,36,15.30
2018,07,23,04,37,15.30
2018,07,23,04,38,15.30
2018,07,23,04,39,15.30
2018,07,23,04,40,15.30
2018,07,23,04,41,15.30
2018,07,23,04,42,15.30
2018,07,23,04,43,15.30
2018,07,23,04,44,15.20
2018,07,23,04,45,15.20
2018,07,23,04,46,15.20
2018,07,23,04,47,15.20
2018,07,23,04,48,15.20
2018,07,23,04,49,15.20
2018,07,23,04,50,15.20
2018,07,23,04,51,15.20
2018,07,23,04,52,15.20
2018,07,23,04,53,15.20
2018,07,23,04,54,15.20
2018,07,23,04,55,15.20
2018,07,23,04,56,15.20
2018,07,23,04,57,15.20
2018,07,23,04,58,15.10
2018,07,23,04,59,15.10
2018,07,23,05,00,15.10
2018,07,23,05,01,15.10
2018,07,23,05,02,15.10
2018,07,23,05,03,15.00
2018,07,23,05,04,15.00
2018,07,23,05,05,15.00
2018,07,23,05,06,15.00
2018,07,23,05,07,15.00
2018,07,23,05,08,15.00
2018,07,23,05,09,15.00
2018,07,23,05,10,15.00
2018,07,23,05,11,15.00
2018,07,23,05,12,15.00
2018,07,23,05,13,15.00
2018,07,23,05,14,15.00
2018,07,23,05,15,15.00
2018,07,23,05,16,15.00
2018,07,23,05,17,15.00
2018,07,23,05,18,15.00
2018,07,23,05,19,14.90
2018,07,23,05,20,14.90
2018,07,23,05,21,14.90
2018,07,23,05,22,14.90
2018,07,23,05,23,14.90
2018,07,23,05,24,14.90
2018,07,23,05,25,14.90
2018,07,23,05,26,14.90
2018,07,23,05,27,14.90
2018,07,23,05,28,14.90
2018,07,23,05,29,14.80
2018,07,23,05,30,14.80
2018,07,23,05,31,14.80
2018,07,23,05,32,14.70
2018,07,23,05,33,14.70
2018,07,23,05,34,14.70
2018,07,23,05,35,14.60
2018,07,23,05,36,14.60
2018,07,23,05,37,14.50
2018,07,23,05,38,14.50
2018,07,23,05,39,14.50
2018,07,23,05,40,14.40
2018,07,23,05,41,14.40
2018,07,23,05,42,14.40
2018,07,23,05,43,14.40
2018,07,23,05,44,14.40
2018,07,23,05,45,14.40
2018,07,23,05,46,14.40
2018,07,23,05,47,14.40
2018,07,23,05,48,14.40
2018,07,23,05,49,14.40
2018,07,23,05,50,14.40
2018,07,23,05,51,14.40
2018,07,23,05,52,14.40
2018,07,23,05,53,14.40
2018,07,23,05,54,14.40
2018,07,23,05,55,14.40
2018,07,23,05,56,14.40
2018,07,23,05,57,14.40
2018,07,23,05,58,14.40
2018,07,23,05,59,14.40
2018,07,23,06,00,14.40
2018,07,23,06,01,14.40
2018,07,23,06,02,14.40
2018,07,23,06,03,14.40
2018,07,23,06,04,14.40
2018,07,23,06,05,14.40
2018,07,23,06,06,14.40
2018,07,23,06,07,14.40
2018,07,23,06,08,14.40
2018,07,23,06,09,14.30
2018,07,23,06,10,14.30
2018,07,23,06,11,14.30
2018,07,23,06,12,14.30
2018,07,23,06,13,14.30
2018,07,23,06,14,14.30
2018,07,23,06,15,14.40
2018,07,23,06,16,14.40
2018,07,23,06,17,14.40
2018,07,23,06,18,14.40
2018,07,23,06,19,14.40
2018,07,23,06,20,14.50
2018,07,23,06,21,14.50
2018,07,23,06,22,14.50
2018,07,23,06,23,14.50
2018,07,23,06,24,14.60
2018,07,23,06,25,14.60
2018,07,23,06,26,14.60
2018,07,23,06,27,14.60
2018,07,23,06,28,14.60
2018,07,23,06,29,14.60
2018,07,23,06,30,14.70
2018,07,23,06,31,14.70
2018,07,23,06,32,14.70
2018,07,23,06,33,14.70
2018,07,23,06,34,14.80
2018,07,23,06,35,14.80
2018,07,23,06,36,14.80
2018,07,23,06,37,14.80
2018,07,23,06,38,14.80
2018,07,23,06,39,14.90
2018,07,23,06,40,14.90
2018,07,23,06,41,14.90
2018,07,23,06,42,15.00
2018,07,23,06,43,15.00
2018,07,23,06,44,15.00
2018,07,23,06,45,15.00
2018,07,23,06,46,15.00
2018,07,23,06,47,15.00
2018,07,23,06,48,15.00
2018,07,23,06,49,15.00
2018,07,23,06,50,15.00
2018,07,23,06,51,15.10
2018,07,23,06,52,15.10
2018,07,23,06,53,15.10
2018,07,23,06,54,15.10
2018,07,23,06,55,15.20
2018,07,23,06,56,15.20
2018,07,23,06,57,15.20
2018,07,23,06,58,15.30
2018,07,23,06,59,15.30
2018,07,23,07,00,15.30
2018,07,23,07,01,15.30
2018,07,23,07,02,15.40
2018,07,23,07,03,15.40
2018,07,23,07,04,15.40
2018,07,23,07,05,15.40
2018,07,23,07,06,15.40
2018,07,23,07,07,15.50
2018,07,23,07,08,15.50
2018,07,23,07,09,15.60
2018,07,23,07,10,15.60
2018,07,23,07,11,15.60
2018,07,23,07,12,15.60
2018,07,23,07,13,15.70
2018,07,23,07,14,15.80
2018,07,23,07,15,15.80
2018,07,23,07,16,15.90
2018,07,23,07,17,15.90
2018,07,23,07,18,16.00
2018,07,23,07,19,16.10
2018,07,23,07,20,16.30
2018,07,23,07,21,16.40
2018,07,23,07,22,16.50
2018,07,23,07,23,16.70
2018,07,23,07,24,16.80
2018,07,23,07,25,17.00
2018,07,23,07,26,17.10
2018,07,23,07,27,17.20
2018,07,23,07,28,17.40
2018,07,23,07,29,17.50
2018,07,23,07,30,17.60
2018,07,23,07,31,17.80
2018,07,23,07,32,17.90
2018,07,23,07,33,18.00
2018,07,23,07,34,18.10
2018,07,23,07,35,18.20
2018,07,23,07,36,18.30
2018,07,23,07,37,18.40
2018,07,23,07,38,18.60
2018,07,23,07,39,18.70
2018,07,23,07,40,18.80
2018,07,23,07,41,18.90
2018,07,23,07,42,19.00
2018,07,23,07,43,19.10
2018,07,23,07,44,19.30
2018,07,23,07,45,19.30
2018,07,23,07,46,19.50
2018,07,23,07,47,19.60
2018,07,23,07,48,19.70
2018,07,23,07,49,19.80
2018,07,23,07,50,19.90
2018,07,23,07,51,20.10
2018,07,23,07,52,20.20
2018,07,23,07,53,20.30
2018,07,23,07,54,20.50
2018,07,23,07,55,20.70
2018,07,23,07,56,20.80
2018,07,23,07,57,20.90
2018,07,23,07,58,21.00
2018,07,23,07,59,21.10
2018,07,23,08,00,21.20
2018,07,23,08,01,21.30
2018,07,23,08,02,21.30
2018,07,23,08,03,21.40
2018,07,23,08,04,21.50
2018,07,23,08,05,21.50
2018,07,23,08,06,21.60
2018,07,23,08,07,21.70
2018,07,23,08,08,21.70
2018,07,23,08,09,21.80
2018,07,23,08,10,21.80
2018,07,23,08,11,21.80
2018,07,23,08,12,21.90
2018,07,23,08,13,21.90
2018,07,23,08,14,22.00
2018,07,23,08,15,22.00
2018,07,23,08,16,22.10
2018,07,23,08,17,22.10
2018,07,23,08,18,22.10
2018,07,23,08,19,22.10
2018,07,23,08,20,22.10
2018,07,23,08,21,22.10
2018,07,23,08,22,22.10
2018,07,23,08,23,22.00
2018,07,23,08,24,22.00
2018,07,23,08,25,22.00
2018,07,23,08,26,22.10
2018,07,23,08,27,22.10
2018,07,23,08,28,22.10
2018,07,23,08,29,22.10
2018,07,23,08,30,22.20
2018,07,23,08,31,22.20
2018,07,23,08,32,22.30
2018,07,23,08,33,22.40
2018,07,23,08,34,22.40
2018,07,23,08,35,22.50
2018,07,23,08,36,22.60
2018,07,23,08,37,22.70
2018,07,23,08,38,22.80
2018,07,23,08,39,22.90
2018,07,23,08,40,23.00
2018,07,23,08,41,23.00
2018,07,23,08,42,23.10
2018,07,23,08,43,23.20
2018,07,23,08,44,23.30
2018,07,23,08,45,23.40
2018,07,23,08,46,23.50
2018,07,23,08,47,23.60
2018,07,23,08,48,23.70
2018,07,23,08,49,23.80
2018,07,23,08,50,23.90
2018,07,23,08,51,24.00
2018,07,23,08,52,24.00
2018,07,23,08,53,24.10
2018,07,23,08,54,24.10
2018,07,23,08,55,24.20
2018,07,23,08,56,24.30
2018,07,23,08,57,24.30
2018,07,23,08,58,24.30
2018,07,23,08,59,24.30
2018,07,23,09,00,24.40
2018,07,23,09,01,24.40
2018,07,23,09,02,24.50
2018,07,23,09,03,24.60
2018,07,23,09,04,24.70
2018,07,23,09,05,24.60
2018,07,23,09,06,24.60
2018,07,23,09,07,24.50
2018,07,23,09,08,24.40
2018,07,23,09,09,24.30
2018,07,23,09,10,24.30
2018,07,23,09,11,24.20
2018,07,23,09,12,24.10
2018,07,23,09,13,24.00
2018,07,23,09,14,23.90
2018,07,23,09,15,23.90
2018,07,23,09,16,23.80
2018,07,23,09,17,23.80
2018,07,23,09,18,23.70
2018,07,23,09,19,23.60
2018,07,23,09,20,23.40
2018,07,23,09,21,23.30
2018,07,23,09,22,23.20
2018,07,23,09,23,23.00
2018,07,23,09,24,22.90
2018,07,23,09,25,22.80
2018,07,23,09,26,22.80
2018,07,23,09,27,22.70
2018,07,23,09,28,22.70
2018,07,23,09,29,22.60
2018,07,23,09,30,22.60
2018,07,23,09,31,22.70
2018,07,23,09,32,22.80
2018,07,23,09,33,22.90
2018,07,23,09,34,23.00
2018,07,23,09,35,23.00
2018,07,23,09,36,23.10
2018,07,23,09,37,23.20
2018,07,23,09,38,23.30
2018,07,23,09,39,23.40
2018,07,23,09,40,23.40
2018,07,23,09,41,23.50
2018,07,23,09,42,23.70
2018,07,23,09,43,23.80
2018,07,23,09,44,23.90
2018,07,23,09,45,23.90
2018,07,23,09,46,23.90
2018,07,23,09,47,23.80
2018,07,23,09,48,23.80
2018,07,23,09,49,23.80
2018,07,23,09,50,23.90
2018,07,23,09,51,23.90
2018,07,23,09,52,24.00
2018,07,23,09,53,24.00
2018,07,23,09,54,24.10
2018,07,23,09,55,24.30
2018,07,23,09,56,24.40
2018,07,23,09,57,24.50
2018,07,23,09,58,24.50
2018,07,23,09,59,24.60
2018,07,23,10,00,24.70
2018,07,23,10,01,24.70
2018,07,23,10,02,24.70
2018,07,23,10,03,24.70
2018,07,23,10,04,24.70
2018,07,23,10,05,24.80
2018,07,23,10,06,24.80
2018,07,23,10,07,24.90
2018,07,23,10,08,24.90
2018,07,23,10,09,25.00
2018,07,23,10,10,25.10
2018,07,23,10,11,25.20
2018,07,23,10,12,25.30
2018,07,23,10,13,25.40
2018,07,23,10,14,25.30
2018,07,23,10,15,25.20
2018,07,23,10,16,25.10
2018,07,23,10,17,25.10
2018,07,23,10,18,25.10
2018,07,23,10,19,25.20
2018,07,23,10,20,25.20
2018,07,23,10,21,25.10
2018,07,23,10,22,25.10
2018,07,23,10,23,25.00
2018,07,23,10,24,25.00
2018,07,23,10,25,25.10
2018,07,23,10,26,25.20
2018,07,23,10,27,25.30
2018,07,23,10,28,25.40
2018,07,23,10,29,25.40
2018,07,23,10,30,25.50
2018,07,23,10,31,25.50
2018,07,23,10,32,25.60
2018,07,23,10,33,25.60
2018,07,23,10,34,25.70
2018,07,23,10,35,25.70
2018,07,23,10,36,25.70
2018,07,23,10,37,25.60
2018,07,23,10,38,25.60
2018,07,23,10,39,25.50
2018,07,23,10,40,25.50
2018,07,23,10,41,25.40
2018,07,23,10,42,25.40
2018,07,23,10,43,25.30
2018,07,23,10,44,25.30
2018,07,23,10,45,25.30
2018,07,23,10,46,25.30
2018,07,23,10,47,25.40
2018,07,23,10,48,25.50
2018,07,23,10,49,25.60
2018,07,23,10,50,25.70
2018,07,23,10,51,25.80
2018,07,23,10,52,25.70
2018,07,23,10,53,25.60
2018,07,23,10,54,25.50
2018,07,23,10,55,25.40
2018,07,23,10,56,25.40
2018,07,23,10,57,25.50
2018,07,23,10,58,25.60
2018,07,23,10,59,25.70
2018,07,23,11,00,25.80
2018,07,23,11,01,25.90
2018,07,23,11,02,26.00
2018,07,23,11,03,26.00
2018,07,23,11,04,26.10
2018,07,23,11,05,26.20
2018,07,23,11,06,26.30
2018,07,23,11,07,26.30
2018,07,23,11,08,26.40
2018,07,23,11,09,26.40
2018,07,23,11,10,26.50
2018,07,23,11,11,26.50
2018,07,23,11,12,26.50
2018,07,23,11,13,26.50
2018,07,23,11,14,26.60
2018,07,23,11,15,26.60
2018,07,23,11,16,26.60
2018,07,23,11,17,26.60
2018,07,23,11,18,26.70
2018,07,23,11,19,26.60
2018,07,23,11,20,26.60
2018,07,23,11,21,26.60
2018,07,23,11,22,26.60
2018,07,23,11,23,26.60
2018,07,23,11,24,26.70
2018,07,23,11,25,26.70
2018,07,23,11,26,26.70
2018,07,23,11,27,26.80
2018,07,23,11,28,26.90
2018,07,23,11,29,26.90
2018,07,23,11,30,26.90
2018,07,23,11,31,26.90
2018,07,23,11,32,26.80
2018,07,23,11,33,26.70
2018,07,23,11,34,26.70
2018,07,23,11,35,26.70
2018,07,23,11,36,26.60
2018,07,23,11,37,26.40
2018,07,23,11,38,26.30
2018,07,23,11,39,26.20
2018,07,23,11,40,26.10
2018,07,23,11,41,26.00
2018,07,23,11,42,26.00
2018,07,23,11,43,26.00
2018,07,23,11,44,26.00
2018,07,23,11,45,25.90
2018,07,23,11,46,25.90
2018,07,23,11,47,25.90
2018,07,23,11,48,25.90
2018,07,23,11,49,26.00
2018,07,23,11,50,26.00
2018,07,23,11,51,26.10
2018,07,23,11,52,26.30
2018,07,23,11,53,26.40
2018,07,23,11,54,26.50
2018,07,23,11,55,26.60
2018,07,23,11,56,26.70
2018,07,23,11,57,26.80
2018,07,23,11,58,26.90
2018,07,23,11,59,27.00
2018,07,23,12,00,27.10
2018,07,23,12,01,27.20
2018,07,23,12,02,27.30
2018,07,23,12,03,27.40
2018,07,23,12,04,27.40
2018,07,23,12,05,27.40
2018,07,23,12,06,27.30
2018,07,23,12,07,27.30
2018,07,23,12,08,27.20
2018,07,23,12,09,27.20
2018,07,23,12,10,27.20
2018,07,23,12,11,27.20
2018,07,23,12,12,27.20
2018,07,23,12,13,27.30
2018,07,23,12,14,27.30
2018,07,23,12,15,27.30
2018,07,23,12,16,27.30
2018,07,23,12,17,27.30
2018,07,23,12,18,27.30
2018,07,23,12,19,27.30
2018,07,23,12,20,27.20
2018,07,23,12,21,27.10
2018,07,23,12,22,27.10
2018,07,23,12,23,27.10
2018,07,23,12,24,26.90
2018,07,23,12,25,26.90
2018,07,23,12,26,26.90
2018,07,23,12,27,27.00
2018,07,23,12,28,27.00
2018,07,23,12,29,27.00
2018,07,23,12,30,27.10
2018,07,23,12,31,27.10
2018,07,23,12,32,27.20
2018,07,23,12,33,27.20
2018,07,23,12,34,27.20
2018,07,23,12,35,27.10
2018,07,23,12,36,27.20
2018,07,23,12,37,27.20
2018,07,23,12,38,27.30
2018,07,23,12,39,27.40
2018,07,23,12,40,27.50
2018,07,23,12,41,27.50
2018,07,23,12,42,27.50
2018,07,23,12,43,27.60
2018,07,23,12,44,27.50
2018,07,23,12,45,27.50
2018,07,23,12,46,27.50
2018,07,23,12,47,27.50
2018,07,23,12,48,27.50
2018,07,23,12,49,27.60
2018,07,23,12,50,27.60
2018,07,23,12,51,27.70
2018,07,23,12,52,27.80
2018,07,23,12,53,27.80
2018,07,23,12,54,27.90
2018,07,23,12,55,27.90
2018,07,23,12,56,28.00
2018,07,23,12,57,28.00
2018,07,23,12,58,28.00
2018,07,23,12,59,28.10
2018,07,23,13,00,28.20
2018,07,23,13,01,28.20
2018,07,23,13,02,28.30
2018,07,23,13,03,28.40
2018,07,23,13,04,28.50
2018,07,23,13,05,28.60
2018,07,23,13,06,28.70
2018,07,23,13,07,28.80
2018,07,23,13,08,28.80
2018,07,23,13,09,28.80
2018,07,23,13,10,28.80
2018,07,23,13,11,28.80
2018,07,23,13,12,28.80
2018,07,23,13,13,28.70
2018,07,23,13,14,28.70
2018,07,23,13,15,28.70
2018,07,23,13,16,28.60
2018,07,23,13,17,28.60
2018,07,23,13,18,28.60
2018,07,23,13,19,28.60
2018,07,23,13,20,28.60
2018,07,23,13,21,28.60
2018,07,23,13,22,28.60
2018,07,23,13,23,28.50
2018,07,23,13,24,28.40
2018,07,23,13,25,28.40
2018,07,23,13,26,28.30
2018,07,23,13,27,28.30
2018,07,23,13,28,28.30
2018,07,23,13,29,28.30
2018,07,23,13,30,28.40
2018,07,23,13,31,28.40
2018,07,23,13,32,28.40
2018,07,23,13,33,28.40
2018,07,23,13,34,28.40
2018,07,23,13,35,28.40
2018,07,23,13,36,28.30
2018,07,23,13,37,28.30
2018,07,23,13,38,28.30
2018,07,23,13,39,28.20
2018,07,23,13,40,28.30
2018,07,23,13,41,28.20
2018,07,23,13,42,28.30
2018,07,23,13,43,28.30
2018,07,23,13,44,28.30
2018,07,23,13,45,28.30
2018,07,23,13,46,28.30
2018,07,23,13,47,28.20
2018,07,23,13,48,28.10
2018,07,23,13,49,28.10
2018,07,23,13,50,28.20
2018,07,23,13,51,28.30
2018,07,23,13,52,28.40
2018,07,23,13,53,28.50
2018,07,23,13,54,28.60
2018,07,23,13,55,28.80
2018,07,23,13,56,28.90
2018,07,23,13,57,29.00
2018,07,23,13,58,29.10
2018,07,23,13,59,29.10
2018,07,23,14,00,29.10
2018,07,23,14,01,29.10
2018,07,23,14,02,29.10
2018,07,23,14,03,29.10
2018,07,23,14,04,29.00
2018,07,23,14,05,29.00
2018,07,23,14,06,29.00
2018,07,23,14,07,29.00
2018,07,23,14,08,28.90
2018,07,23,14,09,28.90
2018,07,23,14,10,28.90
2018,07,23,14,11,28.90
2018,07,23,14,12,29.00
2018,07,23,14,13,29.00
2018,07,23,14,14,29.10
2018,07,23,14,15,29.10
2018,07,23,14,16,29.20
2018,07,23,14,17,29.30
2018,07,23,14,18,29.30
2018,07,23,14,19,29.30
2018,07,23,14,20,29.40
2018,07,23,14,21,29.40
2018,07,23,14,22,29.40
2018,07,23,14,23,29.40
2018,07,23,14,24,29.40
2018,07,23,14,25,29.40
2018,07,23,14,26,29.30
2018,07,23,14,27,29.10
2018,07,23,14,28,29.10
2018,07,23,14,29,29.10
2018,07,23,14,30,29.10
2018,07,23,14,31,29.10
2018,07,23,14,32,29.10
2018,07,23,14,33,29.10
2018,07,23,14,34,29.20
2018,07,23,14,35,29.30
2018,07,23,14,36,29.50
2018,07,23,14,37,29.60
2018,07,23,14,38,29.60
2018,07,23,14,39,29.70
2018,07,23,14,40,29.80
2018,07,23,14,41,29.90
2018,07,23,14,42,29.90
2018,07,23,14,43,29.90
2018,07,23,14,44,29.90
2018,07,23,14,45,29.90
2018,07,23,14,46,29.90
2018,07,23,14,47,29.90
2018,07,23,14,48,29.90
2018,07,23,14,49,29.90
2018,07,23,14,50,29.90
2018,07,23,14,51,29.90
2018,07,23,14,52,29.90
2018,07,23,14,53,29.90
2018,07,23,14,54,29.90
2018,07,23,14,55,29.90
2018,07,23,14,56,29.90
2018,07,23,14,57,29.80
2018,07,23,14,58,29.70
2018,07,23,14,59,29.60
2018,07,23,15,00,29.50
2018,07,23,15,01,29.50
2018,07,23,15,02,29.50
2018,07,23,15,03,29.50
2018,07,23,15,04,29.60
2018,07,23,15,05,29.70
2018,07,23,15,06,29.70
2018,07,23,15,07,29.80
2018,07,23,15,08,29.80
2018,07,23,15,09,29.80
2018,07,23,15,10,29.70
2018,07,23,15,11,29.70
2018,07,23,15,12,29.70
2018,07,23,15,13,29.70
2018,07,23,15,14,29.80
2018,07,23,15,15,29.80
2018,07,23,15,16,29.80
2018,07,23,15,17,29.60
2018,07,23,15,18,29.50
2018,07,23,15,19,29.40
2018,07,23,15,20,29.40
2018,07,23,15,21,29.40
2018,07,23,15,22,29.30
2018,07,23,15,23,29.30
2018,07,23,15,24,29.30
2018,07,23,15,25,29.30
2018,07,23,15,26,29.30
2018,07,23,15,27,29.30
2018,07,23,15,28,29.40
2018,07,23,15,29,29.40
2018,07,23,15,30,29.40
2018,07,23,15,31,29.40
2018,07,23,15,32,29.50
2018,07,23,15,33,29.50
2018,07,23,15,34,29.60
2018,07,23,15,35,29.70
2018,07,23,15,36,29.70
2018,07,23,15,37,29.70
2018,07,23,15,38,29.70
2018,07,23,15,39,29.70
2018,07,23,15,40,29.70
2018,07,23,15,41,29.70
2018,07,23,15,42,29.70
2018,07,23,15,43,29.70
2018,07,23,15,44,29.60
2018,07,23,15,45,29.60
2018,07,23,15,46,29.60
2018,07,23,15,47,29.60
2018,07,23,15,48,29.60
2018,07,23,15,49,29.60
2018,07,23,15,50,29.60
2018,07,23,15,51,29.60
2018,07,23,15,52,29.60
2018,07,23,15,53,29.70
2018,07,23,15,54,29.70
2018,07,23,15,55,29.60
2018,07,23,15,56,29.50
2018,07,23,15,57,29.50
2018,07,23,15,58,29.50
2018,07,23,15,59,29.50
2018,07,23,16,00,29.50
2018,07,23,16,01,29.50
2018,07,23,16,02,29.50
2018,07,23,16,03,29.60
2018,07,23,16,04,29.60
2018,07,23,16,05,29.70
2018,07,23,16,06,29.70
2018,07,23,16,07,29.70
2018,07,23,16,08,29.70
2018,07,23,16,09,29.70
2018,07,23,16,10,29.70
2018,07,23,16,11,29.70
2018,07,23,16,12,29.70
2018,07,23,16,13,29.70
2018,07,23,16,14,29.80
2018,07,23,16,15,29.80
2018,07,23,16,16,29.80
2018,07,23,16,17,29.80
2018,07,23,16,18,29.80
2018,07,23,16,19,29.80
2018,07,23,16,20,29.80
2018,07,23,16,21,29.70
2018,07,23,16,22,29.70
2018,07,23,16,23,29.70
2018,07,23,16,24,29.80
2018,07,23,16,25,29.80
2018,07,23,16,26,29.90
2018,07,23,16,27,30.00
2018,07,23,16,28,30.10
2018,07,23,16,29,30.20
2018,07,23,16,30,30.20
2018,07,23,16,31,30.30
2018,07,23,16,32,30.40
2018,07,23,16,33,30.40
2018,07,23,16,34,30.40
2018,07,23,16,35,30.40
2018,07,23,16,36,30.30
2018,07,23,16,37,30.30
2018,07,23,16,38,30.30
2018,07,23,16,39,30.20
2018,07,23,16,40,30.20
2018,07,23,16,41,30.20
2018,07,23,16,42,30.20
2018,07,23,16,43,30.20
2018,07,23,16,44,30.20
2018,07,23,16,45,30.20
2018,07,23,16,46,30.20
2018,07,23,16,47,30.20
2018,07,23,16,48,30.20
2018,07,23,16,49,30.20
2018,07,23,16,50,30.20
2018,07,23,16,51,30.20
2018,07,23,16,52,30.20
2018,07,23,16,53,30.20
2018,07,23,16,54,30.10
2018,07,23,16,55,30.00
2018,07,23,16,56,29.90
2018,07,23,16,57,29.90
2018,07,23,16,58,29.90
2018,07,23,16,59,29.80
2018,07,23,17,00,29.80
2018,07,23,17,01,29.80
2018,07,23,17,02,29.80
2018,07,23,17,03,29.80
2018,07,23,17,04,29.70
2018,07,23,17,05,29.60
2018,07,23,17,06,29.60
2018,07,23,17,07,29.60
2018,07,23,17,08,29.60
2018,07,23,17,09,29.60
2018,07,23,17,10,29.60
2018,07,23,17,11,29.60
2018,07,23,17,12,29.60
2018,07,23,17,13,29.70
2018,07,23,17,14,29.70
2018,07,23,17,15,29.80
2018,07,23,17,16,29.80
2018,07,23,17,17,29.80
2018,07,23,17,18,29.90
2018,07,23,17,19,29.90